Index of /shared/routes/4ecbae1f9e946e9c732c2278e3018b2c

[ICO]NameLast modifiedSizeDescription

[PARENTDIR]Parent Directory  -  
[   ]140805-0835-Untitled.kmz2014-08-05 16:51 26K 
[   ]140805-0835-Untitled.kmz.php2014-08-05 16:51 734  
[IMG]140805-0835-Untitled.kmz.png2014-08-05 16:51 0  
[   ]140909-0725-Airport-loop-reverse.kmz2014-09-09 15:48 27K 
[   ]140909-0725-Airport-loop-reverse.kmz.php2014-09-09 15:48 748  
[IMG]140909-0725-Airport-loop-reverse.kmz.png2014-09-09 15:48 0  
[   ]140921-0832-Average-daily-ride.kmz2014-09-21 16:42 25K 
[   ]140921-0832-Average-daily-ride.kmz.php2014-09-21 16:42 756  
[IMG]140921-0832-Average-daily-ride.kmz.png2014-09-21 16:42 0  
[   ]150331-0930-Average-daily-ride.kmz2015-03-31 17:54 28K 
[   ]150331-0930-Average-daily-ride.kmz.php2015-03-31 17:54 746  
[IMG]150331-0930-Average-daily-ride.kmz.png2015-03-31 17:54 0  
[   ]150411-0936-Average-daily-ride.kmz2015-04-11 18:46 40K 
[   ]150411-0936-Average-daily-ride.kmz.php2015-04-11 18:46 757  
[IMG]150411-0936-Average-daily-ride.kmz.png2015-04-11 18:46 0  
[   ]150719-1015-Average-daily-ride.kmz2015-07-19 19:06 33K 
[   ]150719-1015-Average-daily-ride.kmz.php2015-07-19 19:06 756  
[IMG]150719-1015-Average-daily-ride.kmz.png2015-07-19 19:06 0  
[   ]150731-0953-Average-daily-ride.kmz2015-07-31 20:26 42K 
[   ]150731-0953-Average-daily-ride.kmz.php2015-07-31 20:26 745  
[IMG]150731-0953-Average-daily-ride.kmz.png2015-07-31 20:26 0  
[IMG]150801-0941-Average-daily-ride.kmz.png2015-08-01 20:44 0  
[IMG]150801-0941-Average-daily-ride.kmz.png.php2015-08-01 20:44 754  
[   ]150803-1024-Average-daily-ride.kmz2015-08-03 20:44 47K 
[   ]150803-1024-Average-daily-ride.kmz.php2015-08-03 20:44 744  
[IMG]150803-1024-Average-daily-ride.kmz.png2015-08-03 20:44 0  
[   ]150805-0707-Average-daily-ride.kmz2015-08-05 17:31 64K 
[   ]150805-0707-Average-daily-ride.kmz.php2015-08-05 17:31 756  
[IMG]150805-0707-Average-daily-ride.kmz.png2015-08-05 17:31 0  

Apache/2.4.29 (Ubuntu) Server at kineticgps.com Port 80